Location: Waco, TX
(31.5480°N, 97.1670°W)
Time: 00:30:01
(UTC-06:00)

ISS - Pass Details

Date: 14 December 2017
Orbit: 403 x 407 km, 51.6° (Epoch: 12 December)

Event Time Altitude Azimuth Distance (km) Brightness Sun altitude
Rises 11:25:12 0° 228° (SW) 2,310 0.3 33.5°
Reaches altitude 10° 11:27:17 10° 230° (SW) 1,454 -0.6 33.6°
Maximum altitude 11:30:32 73° 315° (NW) 427 -3.4 33.8°
Drops below altitude 10° 11:33:48 10° 41° (NE) 1,463 -1.2 33.9°
Sets 11:35:54 0° 43° (NE) 2,325 -0.3 34.0°
